• In Belarus
  • List of Countries
  • For 7 days
  • Water Temperature
  • Satellite Maps
  • Weather Map
  • Weather Widgets
  • user-avatar
    Login

    Hourly Weather Pazardzhik

    Today, 20 January, Saturday

    Time Temperature Precipitation Wind Pressure Humidity
    00:00 +4°C° 0 mm 2 mps 740 mmHg 65%
    01:00 +4°C° 0 mm 2 mps 740 mmHg 67%
    02:00 +4°C° 0 mm 2 mps 740 mmHg 68%
    03:00 +4°C° 0 mm 2 mps 740 mmHg 69%
    04:00 +5°C° 0 mm 2 mps 740 mmHg 70%
    05:00 +5°C° 0 mm 2 mps 740 mmHg 72%
    06:00 +5°C° 0 mm 2 mps 740 mmHg 72%
    07:00 +6°C° 0 mm 1 mps 740 mmHg 73%
    08:00 +6°C° 0 mm 1 mps 740 mmHg 73%
    09:00 +7°C° 0 mm 1 mps 740 mmHg 70%
    10:00 +9°C° 0 mm 1 mps 740 mmHg 66%
    11:00 +11°C° 0 mm 1 mps 740 mmHg 62%
    12:00 +11°C° 0 mm 1 mps 739 mmHg 62%
    13:00 +12°C° 0 mm 2 mps 739 mmHg 62%
    14:00 +12°C° 0 mm 2 mps 739 mmHg 62%
    15:00 +10°C° 0.1 mm 2 mps 739 mmHg 68%
    16:00 +9°C° 0.1 mm 2 mps 738 mmHg 73%
    17:00 +8°C° 0.1 mm 2 mps 738 mmHg 79%
    18:00 +7°C° 0.6 mm 2 mps 739 mmHg 81%
    19:00 +7°C° 0.6 mm 2 mps 739 mmHg 84%
    20:00 +6°C° 0.6 mm 2 mps 739 mmHg 87%
    21:00 +6°C° 0.6 mm 2 mps 739 mmHg 87%
    22:00 +7°C° 0.6 mm 1 mps 740 mmHg 88%
    23:00 +6°C° 0.6 mm 1 mps 740 mmHg 88%

    Tomorrow, 21 January, Sunday

    Time Temperature Precipitation Wind Pressure Humidity
    00:00 +6°C° 0 mm 1 mps 740 mmHg 88%
    01:00 +5°C° 0 mm 1 mps 740 mmHg 87%
    02:00 +5°C° 0 mm 1 mps 740 mmHg 87%
    03:00 +5°C° 0 mm 1 mps 740 mmHg 86%
    04:00 +5°C° 0 mm 1 mps 739 mmHg 86%
    05:00 +5°C° 0 mm 1 mps 739 mmHg 85%
    06:00 +5°C° 0 mm 1 mps 739 mmHg 86%
    07:00 +5°C° 0 mm 1 mps 739 mmHg 86%
    08:00 +5°C° 0 mm 1 mps 739 mmHg 87%
    09:00 +6°C° 0 mm 1 mps 738 mmHg 86%
    10:00 +6°C° 0 mm 2 mps 738 mmHg 85%
    11:00 +7°C° 0 mm 2 mps 738 mmHg 84%
    12:00 +7°C° 0.2 mm 2 mps 737 mmHg 86%
    13:00 +7°C° 0.2 mm 2 mps 736 mmHg 87%
    14:00 +7°C° 0.2 mm 2 mps 735 mmHg 88%
    15:00 +7°C° 0.4 mm 2 mps 735 mmHg 90%
    16:00 +7°C° 0.4 mm 1 mps 734 mmHg 92%
    17:00 +7°C° 0.4 mm 1 mps 733 mmHg 94%
    18:00 +7°C° 0.5 mm 1 mps 733 mmHg 95%
    19:00 +7°C° 0.5 mm 1 mps 733 mmHg 95%
    20:00 +7°C° 0.5 mm 1 mps 732 mmHg 96%
    21:00 +7°C° 0.3 mm 1 mps 732 mmHg 96%
    22:00 +7°C° 0.3 mm 1 mps 732 mmHg 96%
    23:00 +7°C° 0.3 mm 1 mps 732 mmHg 95%

    Day after tomorrow, 22 January, Monday

    Time Temperature Precipitation Wind Pressure Humidity
    00:00 +6°C° 0.6 mm 2 mps 732 mmHg 94%
    01:00 +5°C° 0.6 mm 2 mps 732 mmHg 93%
    02:00 +4°C° 0.6 mm 3 mps 732 mmHg 91%
    03:00 +4°C° 0.4 mm 3 mps 732 mmHg 89%
    04:00 +3°C° 0.4 mm 4 mps 733 mmHg 87%
    05:00 +3°C° 0.4 mm 4 mps 733 mmHg 86%
    06:00 +1°C° 0.1 mm 4 mps 733 mmHg 85%
    07:00 +1°C° 0.1 mm 4 mps 734 mmHg 84%
    08:00 +1°C° 0.1 mm 4 mps 734 mmHg 83%
    09:00 +1°C° 0 mm 4 mps 735 mmHg 81%
    10:00 +3°C° 0 mm 4 mps 736 mmHg 79%
    11:00 +3°C° 0 mm 4 mps 736 mmHg 76%
    12:00 +4°C° 0 mm 4 mps 736 mmHg 75%
    13:00 +4°C° 0 mm 4 mps 736 mmHg 74%
    14:00 +5°C° 0 mm 4 mps 737 mmHg 73%
    15:00 +4°C° 0 mm 4 mps 737 mmHg 75%
    16:00 +3°C° 0 mm 4 mps 738 mmHg 77%
    17:00 +3°C° 0 mm 3 mps 738 mmHg 78%
    18:00 +2°C° 0 mm 3 mps 739 mmHg 81%
    19:00 +1°C° 0 mm 3 mps 740 mmHg 83%
    20:00 +2°C° 0 mm 2 mps 741 mmHg 85%
    21:00 +1°C° 0 mm 2 mps 741 mmHg 86%
    22:00 +1°C° 0 mm 2 mps 742 mmHg 86%
    23:00 -1°C° 0 mm 2 mps 742 mmHg 86%

    23 January, Tuesday

    Time Temperature Precipitation Wind Pressure Humidity
    00:00 -1°C° 0 mm 2 mps 743 mmHg 85%
    01:00 -1°C° 0 mm 2 mps 743 mmHg 84%
    02:00 -1°C° 0 mm 2 mps 743 mmHg 83%
    03:00 -1°C° 0 mm 2 mps 744 mmHg 83%
    04:00 -1°C° 0 mm 2 mps 744 mmHg 82%
    05:00 +1°C° 0 mm 1 mps 744 mmHg 82%
    06:00 0°C° 0 mm 1 mps 745 mmHg 81%
    07:00 0°C° 0 mm 1 mps 746 mmHg 81%
    08:00 0°C° 0 mm 1 mps 746 mmHg 81%
    09:00 +2°C° 0 mm 1 mps 747 mmHg 76%
    10:00 +4°C° 0 mm 1 mps 747 mmHg 71%
    11:00 +5°C° 0 mm 1 mps 747 mmHg 66%
    12:00 +6°C° 0 mm 1 mps 747 mmHg 65%
    13:00 +6°C° 0 mm 1 mps 747 mmHg 64%
    14:00 +7°C° 0 mm 1 mps 747 mmHg 63%
    15:00 +6°C° 0 mm 1 mps 748 mmHg 67%
    16:00 +5°C° 0 mm 1 mps 748 mmHg 72%
    17:00 +4°C° 0 mm 1 mps 749 mmHg 76%
    18:00 +3°C° 0 mm 1 mps 749 mmHg 79%
    19:00 +3°C° 0 mm 1 mps 750 mmHg 81%
    20:00 +2°C° 0 mm 1 mps 751 mmHg 83%
    21:00 +1°C° 0 mm 1 mps 751 mmHg 84%
    22:00 +1°C° 0 mm 1 mps 752 mmHg 84%
    23:00 0°C° 0 mm 0 mps 753 mmHg 84%

    24 January, Wednesday

    Time Temperature Precipitation Wind Pressure Humidity
    00:00 0°C° 0 mm 0 mps 753 mmHg 84%
    01:00 -1°C° 0 mm 0 mps 753 mmHg 85%
    02:00 -1°C° 0 mm 0 mps 754 mmHg 85%
    03:00 0°C° 0 mm 1 mps 754 mmHg 84%
    04:00 0°C° 0 mm 1 mps 754 mmHg 84%
    05:00 0°C° 0 mm 1 mps 754 mmHg 84%
    06:00 -1°C° 0 mm 1 mps 754 mmHg 83%
    07:00 -1°C° 0 mm 1 mps 755 mmHg 82%
    08:00 -1°C° 0 mm 1 mps 755 mmHg 81%
    09:00 +1°C° 0 mm 1 mps 756 mmHg 74%
    10:00 +3°C° 0 mm 1 mps 756 mmHg 67%
    11:00 +4°C° 0 mm 1 mps 756 mmHg 60%
    12:00 +5°C° 0 mm 1 mps 756 mmHg 57%
    13:00 +5°C° 0 mm 1 mps 755 mmHg 55%
    14:00 +6°C° 0 mm 1 mps 755 mmHg 53%
    15:00 +5°C° 0 mm 1 mps 755 mmHg 58%
    16:00 +4°C° 0 mm 1 mps 755 mmHg 63%
    17:00 +3°C° 0 mm 1 mps 755 mmHg 68%
    18:00 +2°C° 0 mm 1 mps 755 mmHg 68%
    19:00 +1°C° 0 mm 1 mps 755 mmHg 69%
    20:00 0°C° 0 mm 1 mps 756 mmHg 69%
    21:00 0°C° 0 mm 1 mps 756 mmHg 67%
    22:00 0°C° 0 mm 1 mps 756 mmHg 66%
    23:00 0°C° 0 mm 1 mps 756 mmHg 64%

    25 January, Thursday

    Time Temperature Precipitation Wind Pressure Humidity
    00:00 -2°C° 0 mm 2 mps 755 mmHg 62%
    01:00 -2°C° 0 mm 2 mps 755 mmHg 61%
    02:00 -2°C° 0 mm 2 mps 755 mmHg 60%
    03:00 -2°C° 0 mm 2 mps 755 mmHg 58%
    04:00 -2°C° 0 mm 2 mps 754 mmHg 57%
    05:00 -2°C° 0 mm 2 mps 754 mmHg 56%
    06:00 -2°C° 0 mm 2 mps 754 mmHg 55%
    07:00 -3°C° 0 mm 2 mps 754 mmHg 55%
    08:00 -3°C° 0 mm 2 mps 754 mmHg 54%
    09:00 -1°C° 0 mm 2 mps 754 mmHg 49%
    10:00 +3°C° 0 mm 1 mps 754 mmHg 43%
    11:00 +6°C° 0 mm 1 mps 753 mmHg 38%
    12:00 +6°C° 0 mm 1 mps 753 mmHg 37%
    13:00 +7°C° 0 mm 1 mps 752 mmHg 36%
    14:00 +6°C° 0 mm 2 mps 752 mmHg 35%
    15:00 +6°C° 0 mm 1 mps 752 mmHg 41%
    16:00 +5°C° 0 mm 1 mps 752 mmHg 47%
    17:00 +3°C° 0 mm 1 mps 752 mmHg 54%
    18:00 +2°C° 0 mm 1 mps 752 mmHg 55%
    19:00 +1°C° 0 mm 1 mps 752 mmHg 56%
    20:00 0°C° 0 mm 1 mps 753 mmHg 57%
    21:00 0°C° 0 mm 1 mps 753 mmHg 58%
    22:00 0°C° 0 mm 1 mps 753 mmHg 58%
    23:00 0°C° 0 mm 1 mps 753 mmHg 58%
    Show more